Weather History for Hobart, OK

Change the Weather History Date:

Saturday, September 14, 2013

  Actual Average Record
Temperature  
Mean Temperature 75 °F -  
Max Temperature 87 °F 86 °F 102 °F (2000)
Min Temperature 64 °F 62 °F 54 °F (1999)
Cooling Degree Days 10    
Growing Degree Days 25 (Base 50)    
Moisture  
Dew Point 62 °F    
Average Humidity 65    
Maximum Humidity 87    
Minimum Humidity 46    
Precipitation  
Precipitation 0.01 in - - ()
Sea Level Pressure  
Sea Level Pressure 29.94 in    
Wind  
Wind Speed 7 mph (ESE)    
Max Wind Speed 17 mph    
Max Gust Speed 16 mph    
Visibility 10 miles    
Events Rain    
Averages and records for this station are not official NWS values.
T = Trace of Precipitation, MM = Missing Value Source: NWS Daily Summary

Daily Weather History Graph

Daily Weather History Graph

Search for Another Location

Airport:

Trip Planner

Search our weather history database for the weather conditions in past years. The results will help you decide how hot, cold, wet, or windy it might be!

Date:

Astronomy

Sep. 14, 2013 Rise Set
Actual Time 7:18 AM CDT 7:44 PM CDT
Civil Twilight 6:53 AM CDT 8:09 PM CDT
Nautical Twilight 6:23 AM CDT 8:39 PM CDT
Astronomical Twilight 5:53 AM CDT 9:09 PM CDT
Moon 4:18 PM CDT (9/14) 2:01 AM CDT (9/14)
Length of Visible Light 13h 16m
Length of Day
12h 25m
Waxing Gibbous, 72% of the Moon is Illuminated
Sep 14
Waxing Gibbous
Sep 19
Full
Sep 26
Last Quarter
Oct 4
New
Oct 11
First Quarter

Hourly Weather History & Observations

Time (CDT) Temp. Heat Index Dew Point Humidity Pressure Visibility Wind Dir Wind Speed Gust Speed Precip Events Conditions
12:53 AM 70.0 °F - 64.9 °F 84% 29.95 in - East 6.9 mph - N/A   Clear
1:53 AM 69.1 °F - 64.9 °F 87% 29.95 in - NNE 3.5 mph - 0.01 in   Clear
2:53 AM 69.1 °F - 64.0 °F 84% 29.94 in - East 6.9 mph - N/A   Clear
3:53 AM 68.0 °F - 62.1 °F 81% 29.94 in - ENE 5.8 mph - N/A   Clear
4:53 AM 66.9 °F - 61.0 °F 81% 29.94 in - East 8.1 mph - N/A   Partly Cloudy
5:53 AM 66.9 °F - 60.1 °F 79% 29.95 in - ENE 6.9 mph - N/A   Mostly Cloudy
6:53 AM 64.9 °F - 57.0 °F 75% 29.95 in 10.0 mi East 10.4 mph - N/A   Clear
7:53 AM 66.0 °F - 55.9 °F 70% 29.97 in 10.0 mi East 9.2 mph - N/A   Scattered Clouds
8:53 AM 69.1 °F - 57.0 °F 65% 29.99 in 10.0 mi ENE 5.8 mph - N/A   Overcast
9:53 AM 70.0 °F - 57.9 °F 65% 30.00 in 10.0 mi ENE 5.8 mph - 0.00 in Rain Light Rain
10:53 AM 73.0 °F - 60.1 °F 64% 30.00 in 10.0 mi ENE 4.6 mph - 0.00 in   Overcast
11:53 AM 75.0 °F - 62.1 °F 64% 29.98 in 10.0 mi ESE 5.8 mph - N/A   Mostly Cloudy
12:53 PM 75.9 °F - 64.0 °F 67% 29.98 in 10.0 mi SSE 11.5 mph - N/A   Mostly Cloudy
1:53 PM 80.1 °F 81.9 °F 64.9 °F 60% 29.95 in 10.0 mi South 10.4 mph - N/A   Mostly Cloudy
2:53 PM 81.0 °F 82.5 °F 64.0 °F 56% 29.94 in 10.0 mi South 9.2 mph - N/A   Mostly Cloudy
3:53 PM 84.0 °F 85.4 °F 64.0 °F 51% 29.91 in 10.0 mi South 6.9 mph 16.1 mph N/A   Mostly Cloudy
4:53 PM 86.0 °F 86.8 °F 63.0 °F 46% 29.88 in 10.0 mi SE 8.1 mph - N/A   Mostly Cloudy
5:53 PM 84.9 °F 85.9 °F 63.0 °F 48% 29.89 in 10.0 mi SE 6.9 mph - N/A   Clear
6:53 PM 84.9 °F 85.4 °F 62.1 °F 46% 29.89 in 10.0 mi SE 10.4 mph - N/A   Clear
7:53 PM 82.0 °F 83.1 °F 63.0 °F 52% 29.89 in 10.0 mi ESE 9.2 mph - N/A   Mostly Cloudy
8:53 PM 79.0 °F - 62.1 °F 56% 29.90 in 10.0 mi ESE 8.1 mph - N/A   Partly Cloudy
9:53 PM 75.0 °F - 62.1 °F 64% 29.91 in 10.0 mi East 5.8 mph - N/A   Clear
10:53 PM 73.9 °F - 62.1 °F 66% 29.92 in 10.0 mi SE 9.2 mph - N/A   Clear
11:53 PM 78.1 °F - 60.1 °F 54% 29.92 in 10.0 mi SSE 17.3 mph - N/A   Clear